Location: L�Ave Maria
(50.7161°N, 1.5911°E)
Time: 12:54:11
(UTC+00:00)

In-Cosmos 22 Rocket - Pass Details

Date: 10 July 2020
Orbit: 791 x 887 km, 81.2° (Epoch: 06 August)

Event Time Altitude Azimuth Distance (km) Brightness Sun altitude
Exits shadow 21:53:11 - 192° (SSW) 2,567 6.3 -12.1°
Reaches altitude 10° 21:53:44 10° 193° (SSW) 2,352 6.1 -12.1°
Maximum altitude 21:59:02 86° 282° (WNW) 804 4.1 -12.5°
Drops below altitude 10° 22:04:26 10° 12° (NNE) 2,390 7.3 -12.9°
Sets 22:06:50 0° 13° (NNE) 3,335 8.2 -13.1°
